Location: Broletto
(44.6000°N, 10.5833°E)
Time: 07:46:10
(UTC+00:00)

Cosmos 2237 Rocket - Pass Details

Date: 18 April 2021
Orbit: 836 x 849 km, 71.0° (Epoch: 06 May)

Event Time Altitude Azimuth Distance (km) Brightness Sun altitude
Rises 21:19:13 0° 326° (NW) 3,401 6.6 -28.2°
Reaches altitude 10° 21:21:54 10° 316° (NW) 2,460 5.5 -28.5°
Maximum altitude 21:26:48 31° 256° (WSW) 1,422 3.4 -28.9°
Enters shadow 21:27:23 31° 244° (WSW) 1,441 3.4 -29.0°
